This is the latest recevied weather packets stored in our database for station/object WX4LTG. If no packets are shown the sender has not sent any weather packets the latest 10 day(s).
| Time | Temp. | Humidity | Pressure | Rain* | Wind** | Luminosity | Snow |
|---|---|---|---|---|---|---|---|
| 1777779878 | 27.78° C | 22% | 1009.4 hPa | 0 mm | - | 0 W/m² | - |
| 1777779575 | 27.22° C | 21% | 1009.7 hPa | 0 mm | - | 0 W/m² | - |
| 1777779273 | 27.78° C | 21% | 1009.6 hPa | 0 mm | - | 0 W/m² | - |
| 1777778971 | 27.78° C | 21% | 1009.4 hPa | 0 mm | - | 0 W/m² | - |
| 1777778669 | 28.33° C | 21% | 1009.3 hPa | 0 mm | - | 0 W/m² | - |
| 1777778366 | 28.33° C | 21% | 1009.2 hPa | 0 mm | - | 0 W/m² | - |
| 1777778064 | 28.33° C | 20% | 1009.3 hPa | 0 mm | - | 0 W/m² | - |
| 1777777760 | 28.33° C | 20% | 1009.3 hPa | 0 mm | - | 0 W/m² | - |
| 1777777457 | 28.33° C | 20% | 1009.2 hPa | 0 mm | - | 0 W/m² | - |
| 1777777154 | 28.89° C | 19% | 1009.4 hPa | 0 mm | - | 0 W/m² | - |
| 1777776851 | 29.44° C | 18% | 1009 hPa | 0 mm | - | 0 W/m² | - |
| 1777776548 | 29.44° C | 18% | 1009.1 hPa | 0 mm | - | 0 W/m² | - |
| 1777776245 | 30° C | 18% | 1009 hPa | 0 mm | - | 0 W/m² | - |
| 1777775942 | 30° C | 17% | 1009.2 hPa | 0 mm | - | 0 W/m² | - |
| 1777775639 | 30° C | 18% | 1009.4 hPa | 0 mm | - | 0 W/m² | - |
| 1777775336 | 30.56° C | 17% | 1009.1 hPa | 0 mm | - | 0 W/m² | - |
| 1777775035 | 30° C | 17% | 1009.3 hPa | 0 mm | - | 0 W/m² | - |
| 1777774732 | 30.56° C | 17% | 1009.2 hPa | 0 mm | - | 1 W/m² | - |
| 1777774429 | 31.11° C | 17% | 1009.4 hPa | 0 mm | - | 2 W/m² | - |
| 1777774126 | 31.11° C | 16% | 1009.1 hPa | 0 mm | - | 4 W/m² | - |
| 1777773824 | 31.11° C | 16% | 1009.3 hPa | 0 mm | - | 6 W/m² | - |
| 1777773520 | 31.11° C | 16% | 1009.2 hPa | 0 mm | - | 9 W/m² | - |
| 1777773217 | 31.11° C | 16% | 1009.2 hPa | 0 mm | - | 13 W/m² | - |
| 1777772913 | 31.67° C | 16% | 1009.2 hPa | 0 mm | - | 17 W/m² | - |
| 1777772611 | 31.67° C | 16% | 1009.2 hPa | 0 mm | - | 22 W/m² | - |
* Rain latest hour (hover to see other rain measurements)
** Current wind speed in m/s (hover to see current wind gust speed)